Regional Weather Roundup
Issued by NWS

Home | Current Version | Previous Version | Text Only | Print | Product List | Glossary Off
Versions: 1 2 3 4 5 6 7 8 9 10 11 12 13 14 15 16 17 18 19 20 21 22 23 24 25 26 27 28 29 30 31 32 33 34 35 36 37 38 39 40 41 42 43 44 45 46 47 48 49 50

000
ASUS43 KDMX 201006
RWRIA

WEATHER ROUNDUP FOR IOWA
NATIONAL WEATHER SERVICE DES MOINES IA
400 AM CST MON NOV 20 2017

NOTE: "FAIR" INDICATES FEW OR NO CLOUDS BELOW 12,000 FEET WITH NO
SIGNIFICANT WEATHER AND/OR OBSTRUCTIONS TO VISIBILITY.

* - THESE STATIONS ARE NOT NWS STATIONS...THUS NOT UNDER NWS
QUALITY CONTROL.  THEY ALSO DO NOT REPORT WEATHER SUCH
AS PRECIPITATION OR FOG.

IAZ001>003-012>014-020>022-031>034-043>046-201100-
   NORTHWEST IOWA

CITY           SKY/WX    TMP DP  RH WIND       PRES   REMARKS
CARROLL *      CLEAR     37  27  65 SW17      29.79F WCI  28
CHEROKEE *     CLEAR     33  25  73 S3        29.75F
DENISON *      CLOUDY    34  25  69 S12       29.80F WCI  25
LE MARS *      CLEAR     32  25  74 S8        29.73F WCI  25
ORANGE CITY *  CLOUDY    34  28  80 S7        29.72F WCI  28
SHELDON *      CLOUDY    28  25  86 SE9       29.71F WCI  20
SIOUX CITY     CLEAR     27  23  85 E8        29.74F WCI  19
SPENCER        CLOUDY    30  23  75 S8        29.74F WCI  22
STORM LAKE *   CLEAR     36  25  64 S8        29.74F WCI  29
$$

IAZ055>058-069>071-079>083-090>094-201100-
   SOUTHWEST IOWA

CITY           SKY/WX    TMP DP  RH WIND       PRES   REMARKS
ATLANTIC *     CLOUDY    34  28  80 S8        29.83F WCI  27
AUDUBON *      CLOUDY    37  27  65 S8        29.82F WCI  31
CLARINDA *       N/A     37  28  70 S7        29.88F WCI  32
COUNCIL BLFS * CLOUDY    41  27  56 S12       29.81F
CRESTON *      CLOUDY    37  28  70 SW12      29.87S WCI  30
HARLAN  *      CLOUDY    34  28  80 SW7       29.84F WCI  28
LAMONI         CLOUDY    37  29  72 S13       29.89F WCI  29
RED OAK *      CLOUDY    36  28  75 SW6       29.85F WCI  31
SHENANDOAH *   CLOUDY    39  28  65 S8        29.86F WCI  34
$$

IAZ047>049-059>061-072>074-084-201100-
   CENTRAL IOWA

CITY           SKY/WX    TMP DP  RH WIND       PRES   REMARKS
AMES           CLEAR     35  29  78 SW7       29.83F WCI  29
ANKENY *       PTCLDY    39  27  60 S12       29.86F WCI  32
BOONE *        CLEAR     37  27  65 SW10G20   29.81F WCI  30
CHARITON *     CLOUDY    37  30  75 S14       29.88F WCI  29
DES MOINES     PTCLDY    38  27  64 S8        29.86F WCI  32
GRINNELL*      PTCLDY    36  29  74 S10       29.88F WCI  28
KNOXVILLE *    CLOUDY    41  27  56 SW15G23   29.86F
MARSHALLTOWN   CLEAR     36  28  73 SW10      29.84F WCI  28
NEWTON *       PTCLDY    39  28  65 SW15G21   29.86F WCI  31
PELLA *        PTCLDY    41  28  60 SW12G17   29.89F
PERRY *          N/A     31  28  86 S10       29.82F WCI  22
$$

IAZ004>006-015-016-023>025-035-036-201100-
   NORTH CENTRAL IOWA

CITY           SKY/WX    TMP DP  RH WIND       PRES   REMARKS
ALGONA *       CLEAR     32  28  86 S12       29.76F WCI  23
CLARION *      CLEAR     30  30 100 S9        29.79F WCI  22
ESTHERVILLE    CLEAR     26  24  92 S9        29.73F WCI  17
FORT DODGE *   CLEAR     33  25  72 S8        29.79F WCI  26
MASON CITY     CLEAR     31  25  78 S9        29.80F WCI  23
FOREST CITY *    N/A     30  27  86 S6        29.78F WCI  24
WEBSTER CITY * CLEAR     32  27  80 S8        29.78F WCI  25
IOWA FALLS *     N/A     34  28  79 S13       29.82F WCI  25
$$

IAZ007>011-017>019-026>030-037>042-050>054-066-201100-
   NORTHEAST IOWA

CITY           SKY/WX    TMP DP  RH WIND       PRES   REMARKS
CEDAR RAPIDS   CLEAR     31  27  85 S9        29.88F WCI  23
CHARLES CITY * CLOUDY    30  30 100 S8        29.82S WCI  23
CLINTON *      CLOUDY    32  26  78 SW8       29.94F WCI  25
DECORAH *      CLEAR     32  27  80 VRB5      29.81F WCI  27
DUBUQUE        PTCLDY    31  26  82 S12       29.88F WCI  22
MONTICELLO *   PTCLDY    32  27  80 S6        29.89F WCI  26
OELWEIN *      CLOUDY    28  28 100 S9        29.84F WCI  20
WATERLOO       CLEAR     32  26  78 S7        29.83F WCI  26
$$

IAZ064-065-067-068-078-201100-
   EAST CENTRAL IOWA

CITY           SKY/WX    TMP DP  RH WIND       PRES   REMARKS
DAVENPORT      CLOUDY    33  25  72 S9        29.95F WCI  25
IOWA CITY      PTCLDY    32  25  75 SE8       29.93F WCI  25
MT. PLEASANT * CLOUDY    33  27  80 S9        29.95F WCI  25
MUSCATINE *    CLOUDY    36  27  69 S8        29.95F WCI  29
QUAD CITIES    CLOUDY    34  24  67 S5        29.95F WCI  30
$$

IAZ062-063-075>077-085>089-095>099-201100-
   SOUTHEAST IOWA

CITY           SKY/WX    TMP DP  RH WIND       PRES   REMARKS
BURLINGTON     CLOUDY    35  28  75 S12       29.97F WCI  27
FAIRFIELD *    CLOUDY    36  27  69 S9        29.92F WCI  29
FORT MADISON * CLOUDY    37  28  70 SW9       29.98S WCI  31
KEOKUK *       CLOUDY    36  28  75 S9        29.97S WCI  29
OSKALOOSA *      N/A     39  29  68 SW14      29.90F WCI  31
OTTUMWA        CLOUDY    40  28  62 S15       29.91F WCI  32
WASHINGTON *   CLOUDY    34  30  86 SW10      29.93F WCI  26
$$

ABBREVIATIONS USED IN REMARKS
   TC - TEMPERATURES IN CELSIUS
  WCI - WIND CHILL INDEX
   HX - HEAT INDEX
  VSB - VISIBILITY
$$





USA.gov is the U.S. government's official web portal to all federal, state and local government web resources and services.